MESAT1

Last updated on Mon Sep 21 2026 00:03:14 GMT+0000 (Coordinated Universal Time)

1 60209U 24125G 26263.37867843 .00092108 00000+0 57861-3 0 9995 2 60209 97.2100 123.7983 0006428 197.2317 162.8731 15.76445914124495
UTC large
Height (km)
Speed (km/s)
/
Latitude / Longitude
Inclination (degrees)
Orbital Period (minutes)
Azimuth
Elevation
Range (km)
Doppler Factor

Next 0 passes for location: London (51.5072 / 0.1276)

No passes found over London.
MESAT1